GW6796 Weather Reports


time (UTC)temp
F
wind
direction
speed
knots
gust
knots
rain 1hr
in
rain 24hr
in
rain mn
in
humidity
%
barometer
mb
20260504191008 49 255 9.6 16.5 0.00 0.00 0.00 44 1014.3
20260504190504 49 268 8.7 16.5 0.00 0.00 0.00 45 1014.3
20260504190010 50 262 7.8 16.5 0.00 0.00 0.00 43 1014.3
20260504185505 51 285 9.6 16.5 0.00 0.00 0.00 42 1014.5
20260504185004 51 255 8.7 14.8 0.00 0.00 0.00 42 1014.4
20260504184514 51 265 7.8 14.8 0.00 0.00 0.00 43 1014.7
20260504184010 53 252 7.0 15.6 0.00 0.00 0.00 42 1014.8
20260504183509 51 302 8.7 15.6 0.00 0.00 0.00 43 1014.8
20260504183020 51 242 9.6 13.9 0.00 0.00 0.00 42 1014.9
20260504182508 51 342 4.3 15.6 0.00 0.00 0.00 45 1014.9
20260504182011 51 259 7.8 15.6 0.00 0.00 0.00 45 1015.0
20260504181523 50 249 8.7 14.8 0.00 0.00 0.00 41 1015.2
20260504181010 52 269 7.8 16.5 0.00 0.00 0.00 43 1015.2
20260504180512 51 309 5.2 18.2 0.00 0.00 0.00 45 1015.2
20260504180028 50 256 7.8 18.2 0.00 0.00 0.00 44 1015.3
20260504175507 49 233 11.3 18.2 0.00 0.00 0.00 46 1015.3
20260504175004 48 304 8.7 17.4 0.00 0.00 0.00 48 1015.5
20260504174511 48 279 12.2 17.4 0.00 0.00 0.00 46 1015.5
20260504174007 49 265 9.6 18.2 0.00 0.00 0.00 47 1015.5
20260504173506 48 332 10.4 18.2 0.00 0.00 0.00 48 1015.7
20260504173016 47 266 10.4 17.4 0.00 0.00 0.00 50 1015.8
20260504172506 48 274 7.8 15.6 0.00 0.00 0.00 49 1015.8
20260504172010 48 245 11.3 15.6 0.00 0.00 0.00 49 1016.0
20260504171535 48 261 10.4 19.1 0.00 0.00 0.00 48 1015.9
20260504171008 48 258 9.6 19.1 0.00 0.00 0.00 51 1015.7
20260504170511 48 243 12.2 15.6 0.00 0.00 0.00 48 1015.8
20260504151007 43 248 1.7 5.2 0.00 0.00 0.00 50 1016.6
20260504150508 43 285 1.7 4.3 0.00 0.00 0.00 49 1016.6
20260504141006 38 236 0.9 5.2 0.00 0.00 0.00 56 1016.6
20260504140508 38 70 2.6 5.2 0.00 0.00 0.00 53 1016.6
20260504130507 34 69 0.9 1.7 0.00 0.00 0.00 58 1016.6
20260504110504 32 232 1.7 3.5 0.00 0.00 0.00 58 1016.0
20260504100506 35 246 0.9 1.7 0.00 0.00 0.00 52 1015.7
20260504082005 37 173 0.0 0.0 0.00 0.00 0.00 52 1016.3
20260504081522 37 173 0.0 0.0 0.00 0.00 0.00 52 1016.4
20260504081007 37 173 0.0 0.0 0.00 0.00 0.00 52 1016.5
20260504080507 37 173 0.0 0.9 0.00 0.00 0.00 53 1016.6
20260504050509 43 96 5.2 6.1 0.00 0.00 0.00 46 1017.7
20260504045503 44 113 1.7 4.3 0.00 0.00 0.00 40 1017.6
20260504045003 45 122 1.7 4.3 0.00 0.00 0.00 40 1017.7
20260504044521 46 169 0.0 1.7 0.00 0.00 0.00 30 1017.8
20260504044006 46 291 0.9 1.7 0.00 0.00 0.00 26 1017.8
20260504043504 46 222 0.0 1.7 0.00 0.00 0.00 26 1017.8
20260504043017 46 226 0.0 1.7 0.00 0.00 0.00 26 1017.8
20260504042508 46 235 0.0 1.7 0.00 0.00 0.00 25 1017.8
20260504042005 46 189 0.0 2.6 0.00 0.00 0.00 26 1017.8
20260504041520 47 221 0.0 2.6 0.00 0.00 0.00 25 1017.8
20260504041008 47 280 0.9 4.3 0.00 0.00 0.00 24 1017.8
20260504040511 47 257 1.7 4.3 0.00 0.00 0.00 24 1017.8
20260504040025 47 255 2.6 4.3 0.00 0.00 0.00 23 1017.9
20260504035509 47 276 2.6 3.5 0.00 0.00 0.00 24 1017.9
20260504035011 47 285 1.7 3.5 0.00 0.00 0.00 24 1017.8
20260504034528 47 269 0.9 3.5 0.00 0.00 0.00 24 1017.8
20260504034004 47 267 2.6 6.1 0.00 0.00 0.00 24 1017.9
20260504033503 48 259 3.5 6.1 0.00 0.00 0.00 23 1017.8
20260504033013 48 262 2.6 5.2 0.00 0.00 0.00 23 1017.8
20260504032507 48 248 3.5 4.3 0.00 0.00 0.00 24 1017.8
20260504032010 48 250 1.7 6.1 0.00 0.00 0.00 24 1017.8
20260504031518 48 264 1.7 6.1 0.00 0.00 0.00 23 1017.8
20260504031006 48 250 3.5 6.1 0.00 0.00 0.00 23 1017.7
20260504030507 48 335 3.5 7.0 0.00 0.00 0.00 23 1017.7
20260504030035 48 295 3.5 7.8 0.00 0.00 0.00 23 1017.7
20260504025507 48 257 4.3 7.8 0.00 0.00 0.00 24 1017.6
20260504025009 49 280 4.3 9.6 0.00 0.00 0.00 25 1017.6
20260504024523 48 300 6.1 14.8 0.00 0.00 0.00 25 1017.6
20260504024007 48 262 6.1 14.8 0.00 0.00 0.00 25 1017.6
20260504023506 48 285 3.5 7.8 0.00 0.00 0.00 28 1017.6
20260504023026 48 249 3.5 11.3 0.00 0.00 0.00 31 1017.6
20260504022505 48 270 4.3 12.2 0.00 0.00 0.00 31 1017.5
20260504022007 48 255 8.7 14.8 0.00 0.00 0.00 29 1017.6
20260504021512 49 279 7.8 14.8 0.00 0.00 0.00 33 1017.5
20260504021006 48 232 5.2 11.3 0.00 0.00 0.00 33 1017.6
20260504020506 49 189 6.1 12.2 0.00 0.00 0.00 34 1017.6
20260504020019 50 233 8.7 12.2 0.00 0.00 0.00 25 1017.6
20260504015507 50 284 7.8 17.4 0.00 0.00 0.00 25 1017.5
20260504015007 50 274 11.3 17.4 0.00 0.00 0.00 25 1017.5
20260504014519 50 248 8.7 15.6 0.00 0.00 0.00 26 1017.5
20260504014011 50 271 8.7 13.9 0.00 0.00 0.00 25 1017.5
20260504013508 50 244 9.6 14.8 0.00 0.00 0.00 25 1017.5
20260504013022 50 277 8.7 20.9 0.00 0.00 0.00 25 1017.5
20260504012512 50 225 7.0 20.9 0.00 0.00 0.00 26 1017.5
20260504012017 50 274 9.6 18.2 0.00 0.00 0.00 27 1017.5
20260504011528 51 278 9.6 16.5 0.00 0.00 0.00 27 1017.6
20260504011005 50 266 9.6 16.5 0.00 0.00 0.00 31 1017.7
20260504010503 50 265 8.7 14.8 0.00 0.00 0.00 30 1017.7
20260504010014 50 261 7.8 11.3 0.00 0.00 0.00 31 1017.6
20260504005507 50 270 5.2 13.0 0.00 0.00 0.00 31 1017.6
20260504005008 50 276 7.8 13.0 0.00 0.00 0.00 32 1017.8
20260504004522 50 267 7.8 14.8 0.00 0.00 0.00 31 1017.8
20260504004011 50 259 8.7 14.8 0.00 0.00 0.00 31 1017.8
20260504003509 50 244 8.7 13.0 0.00 0.00 0.00 32 1017.8
20260504003021 50 243 7.0 10.4 0.00 0.00 0.00 33 1017.9
20260504002507 50 231 7.0 12.2 0.00 0.00 0.00 32 1018.0
20260504002007 50 280 7.8 12.2 0.00 0.00 0.00 33 1018.1
20260504001526 50 253 7.8 19.1 0.00 0.00 0.00 32 1018.1
20260504001013 50 255 13.0 19.1 0.00 0.00 0.00 31 1018.2
20260504000510 50 252 8.7 13.0 0.00 0.00 0.00 32 1018.3
20260504000027 50 265 7.0 14.8 0.00 0.00 0.00 33 1018.2
20260503235507 50 250 8.7 16.5 0.00 0.00 0.00 33 1018.2
20260503235004 50 266 10.4 23.5 0.00 0.00 0.00 33 1018.4
20260503234526 49 291 12.2 23.5 0.00 0.00 0.00 36 1018.5
20260503234008 49 259 14.8 20.0 0.00 0.00 0.00 35 1018.4
20260503233509 48 273 8.7 26.1 0.00 0.00 0.00 38 1018.6
20260503233018 48 262 14.8 30.4 0.00 0.00 0.00 36 1018.7
20260503232508 49 284 19.1 30.4 0.00 0.00 0.00 38 1018.7
20260503232007 49 270 10.4 16.5 0.00 0.00 0.00 36 1018.8
20260503231521 49 259 12.2 16.5 0.00 0.00 0.00 35 1018.8
20260503231015 49 253 7.8 13.9 0.00 0.00 0.00 37 1018.7
20260503230512 48 277 10.4 13.9 0.00 0.00 0.00 38 1018.6
20260503230029 48 268 7.0 14.8 0.00 0.00 0.00 41 1018.8
20260503225507 47 207 8.7 19.1 0.00 0.00 0.00 44 1018.7
20260503225012 46 228 13.0 22.6 0.00 0.00 0.00 45 1018.8
20260503224528 47 208 12.2 25.2 0.00 0.00 0.00 45 1018.9
20260503224008 47 240 18.2 30.4 0.00 0.00 0.00 43 1018.8
20260503223505 47 260 16.5 30.4 0.00 0.00 0.00 41 1018.8
20260503223016 48 241 20.9 31.3 0.00 0.00 0.00 39 1018.7
20260503222508 49 260 20.0 32.2 0.00 0.00 0.00 34 1018.6
20260503222008 51 255 21.7 32.2 0.00 0.00 0.00 30 1018.2
20260503221523 52 269 18.2 27.8 0.00 0.00 0.00 26 1018.2
20260503221015 53 253 13.0 20.9 0.00 0.00 0.00 27 1018.2
20260503220508 54 258 10.4 20.0 0.00 0.00 0.00 29 1018.2
20260503220039 54 260 13.0 20.0 0.00 0.00 0.00 28 1018.2
20260503215509 54 247 15.6 22.6 0.00 0.00 0.00 26 1018.2
20260503215007 55 255 9.6 24.3 0.00 0.00 0.00 25 1018.2
20260503214529 55 269 9.6 24.3 0.00 0.00 0.00 27 1018.4
20260503214009 55 249 13.9 26.1 0.00 0.00 0.00 25 1018.4
20260503213509 54 242 13.0 26.1 0.00 0.00 0.00 26 1018.4
20260503213026 54 267 16.5 26.9 0.00 0.00 0.00 26 1018.7
20260503212509 54 246 18.2 26.9 0.00 0.00 0.00 25 1018.8
20260503212008 53 275 11.3 26.9 0.00 0.00 0.00 26 1018.8
20260503211516 53 245 10.4 20.0 0.00 0.00 0.00 29 1018.7
20260503211008 52 255 8.7 21.7 0.00 0.00 0.00 27 1018.8
20260503210508 52 241 15.6 24.3 0.00 0.00 0.00 28 1018.9
20260503210022 53 239 16.5 24.3 0.00 0.00 0.00 27 1018.8
20260503205508 55 240 12.2 22.6 0.00 0.00 0.00 27 1018.9
20260503205009 53 264 12.2 20.9 0.00 0.00 0.00 27 1019.1
20260503204526 54 245 12.2 21.7 0.00 0.00 0.00 26 1019.3
20260503204014 55 262 10.4 21.7 0.00 0.00 0.00 27 1019.3
20260503203509 54 245 6.1 20.9 0.00 0.00 0.00 27 1019.2
20260503203031 53 227 10.4 22.6 0.00 0.00 0.00 29 1019.3
20260503202511 52 266 10.4 22.6 0.00 0.00 0.00 30 1019.5
20260503202013 52 280 7.8 20.0 0.00 0.00 0.00 28 1019.6
20260503201526 51 277 14.8 22.6 0.00 0.00 0.00 28 1019.6
20260503201011 52 243 14.8 22.6 0.00 0.00 0.00 27 1019.6
20260503200510 54 261 11.3 24.3 0.00 0.00 0.00 28 1019.5
20260503200020 52 249 16.5 24.3 0.00 0.00 0.00 26 1019.6
20260503195510 53 244 9.6 17.4 0.00 0.00 0.00 26 1019.5
20260503195009 53 257 6.1 20.9 0.00 0.00 0.00 26 1019.5
20260503194524 52 262 11.3 20.9 0.00 0.00 0.00 25 1019.6
20260503194004 53 253 17.4 20.9 0.00 0.00 0.00 25 1019.5
20260503193506 53 344 12.2 20.0 0.00 0.00 0.00 23 1019.7
20260503193008 53 302 6.1 19.1 0.00 0.00 0.00 25 1019.6
20260503192503 54 217 8.7 14.8 0.00 0.00 0.00 22 1019.7
20260503192006 53 276 8.7 14.8 0.00 0.00 0.00 23 1019.8
20260503191514 53 276 8.7 24.3 0.00 0.00 0.00 23 1019.9